Skip Page Navigation
NASA JPL Caltech
NASA Logo - Jet Propulsion Laboratory + View the NASA Portal
+ Center for Near-Earth Object Studies
JPL Home Earth Solar System Stars & Galaxies Technology
JPL Solar System Dynamics
BODIES ORBITS EPHEMERIDES TOOLS PHYSICAL DATA DISCOVERY FAQ SITE MAP
IMPORTANT: The SSD Announcement email list is now available. Major changes are coming in the near future, including possible hostname and/or URL changes. To be notified of such changes, subscribe to this email list.

Please visit this page for more details.


JPL Small-Body Database Browser
Search: [ help ]  
105906 (2000 SA200)
Classification: Main-belt Asteroid          SPK-ID: 2105906
Ephemeris | Orbit Diagram | Orbital Elements | Mission Design | Physical Parameters | Discovery Circumstances ]

[ show orbit diagram ]
Orbital Elements at Epoch 2459000.5 (2020-May-31.0) TDB
Reference: JPL 19 (heliocentric ecliptic J2000)
 Element Value Uncertainty (1-sigma)   Units 
e .09411717144705668 5.8889e-08  
a 2.969550475206213 2.5052e-08 au
q 2.690064784010541 1.7989e-07 au
i 9.553299486676037 5.4754e-06 deg
node 193.5630789358253 2.7482e-05 deg
peri 219.6833532844896 4.4705e-05 deg
M 271.5466929511505 4.0668e-05 deg
tp 2459459.746725386555
(2021-Sep-02.24672539)
0.00021448 TDB
period 1869.108421778451
5.12
2.3653e-05
6.476e-08
d
yr
n .1926051992518771 2.4373e-09 deg/d
Q 3.249036166401885 2.741e-08 au
  Orbit Determination Parameters
   # obs. used (total)      517  
   data-arc span      6904 days (18.90 yr)  
   first obs. used      2000-09-23  
   last obs. used      2019-08-19  
   planetary ephem.      DE431  
   SB-pert. ephem.      SB431-N16  
   condition code      0  
   norm. resid. RMS      .52881  
   source      ORB  
   producer      Otto Matic  
   solution date      2019-Sep-24 03:09:01  

Additional Information
 Earth MOID = 1.7078 au 
 Jupiter MOID = 2.16236 au 
 T_jup = 3.236 
[ show covariance matrix ]

Ephemeris | Orbit Diagram | Orbital Elements | Mission Design | Physical Parameters | Discovery Circumstances ]

Physical Parameter Table
Parameter Symbol Value Units Sigma Reference Notes
absolute magnitude H 15.3   n/a MPO338018  

105906 (2000 SA200)          Discovered 2000-Sep-24 by LINEAR at Socorro
Reference: 20051019/Numbers.arcLast Updated: 2005-10-26
Ephemeris | Orbit Diagram | Orbital Elements | Mission Design | Physical Parameters | Discovery Circumstances ]
ABOUT SSD CREDITS/AWARDS PRIVACY/COPYRIGHT GLOSSARY LINKS
FirstGov 2020-Mar-28 18:22 UT
(server date/time)  
NASA Home Page
Site Manager:   Ryan S. Park
Webmaster  Alan B. Chamberlin